Arlington Heights Weather Forecast: High Winds 40 MPH Gusts, Rain, Sleet and Snow, High 43 Sunday

TODAY SUNRISE: 7:14 PM SUNSET: 6:40 AM

Chicagoland weather radar shows mixed precipitation crossing the Mississippi River at about 8:05 AM.

Satellite images show clouds approaching from northwest Illinois at 8:00 AM.

 NWS POINT FORECAST … 



Today
Rain showers, snow, and sleet, becoming all rain after 2pm. High near 44. Breezy, with a south wind 20 to 25 mph, with gusts as high as 40 mph. Chance of precipitation is 90%. Little or no snow and sleet accumulation expected.


Tonight
A 40 percent chance of showers, mainly before 8pm. Cloudy during the early evening, then gradual clearing, with a low around 32. Breezy, with a southwest wind 15 to 20 mph becoming west northwest after midnight. Winds could gust as high as 30 mph.


Monday
Sunny, with a high near 57. West wind around 10 mph, with gusts as high as 15 mph.


Monday Night
A chance of rain between 8pm and 2am. Mostly cloudy, with a low around 41. Southwest wind 5 to 15 mph, with gusts as high as 25 mph. Chance of precipitation is 30%.


Tuesday
Mostly sunny, with a high near 57. West wind 10 to 15 mph becoming north northeast in the afternoon.


Tuesday Night
Mostly clear, with a low around 33.


Wednesday
Sunny, with a high near 64.


Wednesday Night
A chance of showers and thunderstorms. Mostly cloudy, with a low around 50.


Thursday
A chance of showers and thunderstorms. Mostly cloudy, with a high near 64.


Thursday Night
A chance of showers. Mostly cloudy, with a low around 36.


Friday
A chance of showers. Partly sunny, with a high near 46.


Friday Night
A chance of showers. Mostly cloudy, with a low around 28.


Saturday
Mostly sunny, with a high near 51.

 AIRPORT WEATHER OBSERVATIONS … 

Location Time
(cdt)
Sky/Weather Temp.
(ºF)
Dewpt.
(ºF)
Humidity
(%)
Wind
(mph)
Pressure
(in)
Chicago/O’Hare 07:51 Mostly Cloudy 32 16 52 S 18 G 29 30.11
Chicago Midway Airport 07:53 Mostly Cloudy 32 17 54 S 15 G 26 30.15
Chicago Executive Airport 07:52 Fair 32 15 50 S 18 G 25 30.13
Chicago / West Chicago, Dupage Airport 07:52 Fair 31 18 59 S 17 G 26 30.10
Aurora Municipal Airport 07:52 Fair 30 19 64 S 17 30.11
Gary Chicago International 07:45 Partly Cloudy 32 12 44 S 20 30.19
Kenosha Regional Airport 07:53 Fair 34 17 50 S 15 30.07
Chicago / Waukegan, Waukegan Regional Airport 07:55 Fair 33 15 48 S 14 30.08
Lansing Municipal Airport 07:55 Fair 31 17 56 S 14 30.18
Click on location name for the weather during the past two days at that site.

 CHICAGO EXECUTIVE AIRPORT … 

D
a
t
e
Time
(cdt)
Wind
(mph)
Vis.
(mi.)
Weather Sky Cond. Temperature (ºF) Relative
Humidity
Wind
Chill
(°F)
Heat
Index
(°F)
Pressure Precipitation (in.)
Air Dwpt 6 hour altimeter
(in)
sea level
(mb)
1 hr 3 hr 6 hr
Max. Min.
29 07:52 S 18 G 25 10.00 Fair CLR 32 15 50% 21 NA 30.13 1021.0
29 06:52 S 14 10.00 Fair CLR 31 14 31 24 49% 21 NA 30.14 1021.4
29 05:52 S 9 10.00 Fair CLR 29 14 54% 21 NA 30.14 1021.6
29 04:52 S 12 10.00 Fair CLR 28 13 53% 18 NA 30.15 1021.9
29 03:52 S 12 10.00 Fair CLR 27 13 55% 16 NA 30.18 1022.9
29 02:52 S 9 10.00 Fair CLR 26 13 57% 17 NA 30.22 1024.0
29 01:52 S 9 10.00 Fair CLR 26 13 57% 17 NA 30.25 1025.1
29 00:52 S 7 10.00 Fair CLR 24 13 31 23 62% 16 NA 30.27 1025.9

 YESTERDAY’S OBSERVATIONS … 

28 23:52 S 6 10.00 Fair CLR 23 12 63% 16 NA 30.28 1026.2
28 22:52 S 6 10.00 Fair CLR 24 11 57% 17 NA 30.28 1026.4
28 21:52 SE 3 10.00 Fair CLR 25 9 50% NA NA 30.30 1027.1
28 20:52 SE 5 10.00 Fair CLR 28 7 41% 22 NA 30.30 1027.1
28 19:52 SE 6 10.00 Fair CLR 29 7 39% 23 NA 30.30 1026.8
28 18:52 E 7 10.00 Fair CLR 32 7 34 31 35% 25 NA 30.30 1026.9
28 17:52 E 6 10.00 Fair CLR 33 8 35% 27 NA 30.30 1027.1
28 16:52 Vrbl 5 10.00 Fair CLR 33 7 33% 28 NA 30.31 1027.2
28 15:52 NE 8 10.00 Fair CLR 34 7 32% 27 NA 30.33 1027.8
28 14:52 Vrbl 6 10.00 Fair CLR 33 6 32% 27 NA 30.33 1028.1
28 13:52 NA 10.00 Fair CLR 33 7 33% NA NA 30.34 1028.4
28 12:52 E 5 10.00 Fair CLR 31 9 32 19 40% 26 NA 30.36 1029.0
28 11:52 E 12 10.00 Fair CLR 31 8 38% 22 NA 30.36 1029.1
28 10:52 N 8 10.00 Fair CLR 30 9 41% 22 NA 30.37 1029.3
28 09:52 NE 8 10.00 Fair CLR 29 10 45% 21 NA 30.36 1028.8
28 08:52 NE 10 10.00 Fair CLR 27 11 51% 18 NA 30.33 1028.1
28 07:52 N 5 10.00 Fair CLR 23 16 74% 17 NA 30.31 1027.5
28 06:52 Calm 10.00 Fair CLR 19 13 22 17 77% NA NA 30.29 1026.8
28 05:52 NE 3 10.00 Fair CLR 20 14 78% NA NA 30.27 1026.2
28 04:52 Calm 10.00 Fair CLR 19 13 77% NA NA 30.25 1025.4
28 03:52 Calm 10.00 Fair CLR 19 12 74% NA NA 30.24 1025.0
28 02:52 Calm 10.00 Fair CLR 20 13 74% NA NA 30.24 1025.0
28 01:52 NW 5 10.00 Fair CLR 21 13 71% 14 NA 30.24 1025.1
28 00:52 NW 3 10.00 Fair CLR 20 13 25 20 74% NA NA 30.24 1024.9

 MORE HELPFUL LINKS …  

LIVE RADAR | STORM TRACKS | UNISYS US IR SAT | UNISYS Midwest IR SAT | UNISYS More IR SAT

WunderMap® with Temperature/Wind Data || Google: Arlington Heights Temps | NE Illinois Temps

Full Screen Motion Weather Radar (Wunderground.com)

Midwest Cloud Cover with Arlington Heights Weather Forecast | SWPC Aurora Forecast

ChicagoWeatherStation.com I O’Hare Normal Temps/Precip I O’Hare Record Temps, Precip, Snow

SUNLIGHT DATA FOR SECURITY, TRAFFIC SAFETY, AND SPORTS
SunCalc.net data with solar azimuth and trajectory, times for dawn, sunrise, solar noon, sunset, dusk …


Become a fan of The Cardinal weather page. Submit your pictures or just stay up-to-date on weather topics — go direct to the Arlington Cardinal Weather photos. For a list of all of The Cardinal Facebook fan pages, go to Arlingtoncardinal.com/about/facebook …

Arlington Heights weather forecast, Arlington Heights Illinois weather forecast, weather forecast